Regional Weather Roundup
Issued by NWS

Home | Current Version | Previous Version | Text Only | Print | Product List | Glossary On
Versions: 1 2 3 4 5 6 7 8 9 10 11 12 13 14 15 16 17 18 19 20 21 22 23 24 25 26 27 28 29 30 31 32 33 34 35 36 37 38 39 40 41 42 43 44 45 46 47 48 49 50
292
ASCA42 TJSJ 240810
RWRPR
PUERTO RICO/U.S. VIRGIN ISLANDS HOURLY WEATHER ROUNDUP
NATIONAL WEATHER SERVICE SAN JUAN PR
400 AM AST TUE JAN 24 2017

PRZ001>002-007>008-010-240900-
PUERTO RICO

CITY           SKY/WX    TMP DP  RH WIND       PRES   REMARKS
SAN JUAN LMM   CLEAR     73  66  78 S3        29.92F
PONCE          PTCLDY    66  66 100 CALM      29.95
CEIBA          MOCLDY    73  70  88 SW6       29.95S
$$

VIZ001>002-240900-
U.S. VIRGIN ISLANDS

CITY           SKY/WX    TMP DP  RH WIND       PRES   REMARKS
CHARLOTTE AMA  PTCLDY    79  70  73 S13       29.93S
CHRISTIANSTED  PTCLDY    77  70  78 S7        29.94S
$$

HOURLY WEATHER ROUNDUP FOR THE NEWS MEDIA

CITY           SKY/WX    TMP DP  RH WIND       PRES   REMARKS
ORLANDO        CLEAR     62  50  64 NW15G23   29.77R
NEW YORK       LGT RAIN  39  36  89 NE31G40   29.34F FOG     WCI  27
NEWARK         LGT RAIN  38  35  89 N20       29.37S WCI  28
CHICAGO        CLOUDY    38  34  85 NW9       29.81R WCI  31
HARTFORD       RAIN      41  38  89 NE25G37   29.49F FOG
BOSTON         HVY RAIN  38  37  97 NE32G47   29.64F FOG     WCI  25
DALLAS         MOCLDY    53  38  56 SE12      29.72F
PHILADELPHIA   LGT RAIN  38  36  92 N17       29.40S FOG     WCI  28
LOS ANGELES    PTCLDY    48  38  68 N3        29.92R
WASHINGTON DC  DRIZZLE   36  34  92 NW12      29.48S WCI  28



USA.gov is the U.S. government's official web portal to all federal, state and local government web resources and services.